User: anonymous   Login
Location: Unspecified
(0.0000°N, 0.0000°E)
Time: 17:03:51
(UTC+00:00)
Language:

Nimbus 4 - Orbit

View from above orbital plane
View from above orbital plane
View from above satellite
View from above satellite

Ground track
Ground track

The orbit data is extracted from the following two-line orbital elements,

1 04362U 70025A   18142.71030758 -.00000047  00000-0 -35555-5 0  9997
2 04362  99.9978  50.3150 0007366 344.9980  68.3067 13.44594626361173
Epoch (UTC): 22 May 2018 17:02:50
Eccentricity: 0.0007366
inclination: 99.9978°
perigee height: 1087 km
apogee height: 1098 km
right ascension of ascending node: 50.3150°
argument of perigee: 344.9980°
revolutions per day: 13.44594626
mean anomaly at epoch: 68.3067°
orbit number at epoch: 36117

The dashed part of the orbit path shows where the satellite is in the earth's shadow,  

DLR